Regional Weather Roundup
Issued by NWS Northern Indiana

Home | Current Version | Previous Version | Graphics & Text | Print | Product List | Glossary On
Versions: 1 2 3 4 5 6 7 8 9 10 11 12 13 14 15 16 17 18 19 20 21 22 23 24 25 26 27 28 29 30 31 32 33 34 35 36 37 38 39 40 41 42 43 44 45 46 47 48 49 50
000
ASUS43 KIWX 070010
RWRIWX

KIWX WEATHER ROUNDUP
NATIONAL WEATHER SERVICE NORTHERN INDIANA
800 PM EDT MON JUL 06 2015

NOTE: "FAIR" INDICATES FEW OR NO CLOUDS BELOW 12,000 FEET WITH NO
SIGNIFICANT WEATHER AND/OR OBSTRUCTIONS TO VISIBILITY.

* THESE STATIONS ARE NOT UNDER NWS QUALITY CONTROL. THEY ALSO MAY NOT
  REPORT WEATHER SUCH AS PRECIPITATION OR FOG.

INZ001>027-070100-
NORTHERN INDIANA

CITY           SKY/WX    TMP DP  RH WIND       PRES   REMARKS
GARY*          PTSUNNY  N/A N/A N/A S6        29.87F
VALPARAISO     CLOUDY    75  72  90 SE9       29.90F
6HR MIN TEMP:  75; 6HR MAX TEMP:  85; 6HR PCP:  0.21;

MICHIGAN CITY* CLOUDY    73  68  83 S6        29.89S
LAPORTE*       CLOUDY    83  70  66 S8        29.91F
6HR MIN TEMP:  82; 6HR MAX TEMP:  86;

KNOX*          CLOUDY    81  68  65 S10       29.90F
SOUTH BEND     CLOUDY    82  69  64 S12       29.91F
6HR MIN TEMP:  82; 6HR MAX TEMP:  86;

ELKHART*       CLOUDY    82  66  57 S7        29.92F
GOSHEN         PTSUNNY   81  66  60 S10       29.92F
6HR MIN TEMP:  80; 6HR MAX TEMP:  83;

MONTICELLO*    PTSUNNY   81  73  75 S7        29.91F
6HR MIN TEMP:  81; 6HR MAX TEMP:  85;

LOGANSPORT*    PTSUNNY   79  64  61 S5        29.94S
ROCHESTER*     PTSUNNY   82  70  65 S6        29.93F
WARSAW*          N/A     81  66  61 S3        29.93F
ANGOLA*          N/A     84  66  54 SW9       29.95S
FORT WAYNE     PTSUNNY   80  66  62 S9        29.96S
6HR MIN TEMP:  80; 6HR MAX TEMP:  85;

HUNTINGTON*    MOSUNNY   80  66  62 SW3       29.95S
6HR MIN TEMP:  80; 6HR MAX TEMP:  84;

PERU/GRISSOM   PTSUNNY   81  70  68 S6        29.93F
6HR MIN TEMP:  81; 6HR MAX TEMP:  85;

MARION*        MOSUNNY   79  65  62 S7        29.96S
6HR MIN TEMP:  52; 6HR MAX TEMP:  83;


$$
INZ028>050-070100-
CENTRAL INDIANA

CITY           SKY/WX    TMP DP  RH WIND       PRES   REMARKS
LAFAYETTE      PTSUNNY   81  70  69 S7        29.92S
6HR MIN TEMP:  81; 6HR MAX TEMP:  84;

KOKOMO*        MOSUNNY   82  66  57 SW9       29.94F
6HR MIN TEMP:  82; 6HR MAX TEMP:  84;

MUNCIE*        SUNNY     82  66  58 S9        29.97F
6HR MIN TEMP:  82; 6HR MAX TEMP:  86;

INDIANAPOLIS   MOSUNNY   81  68  64 S9        29.95F
6HR MIN TEMP:  81; 6HR MAX TEMP:  85;


$$
MIZ043>046-050>051-056>058-064>065-071>073-077>080-070100-
SOUTHWEST LOWER MICHIGAN

CITY           SKY/WX    TMP DP  RH WIND       PRES   REMARKS
BATTLE CREEK   PTSUNNY   81  65  58 S10       29.92F
6HR MIN TEMP:  81; 6HR MAX TEMP:  85;

BENTON HARBOR  CLOUDY    82  69  64 S8        29.87F
6HR MIN TEMP:  82; 6HR MAX TEMP:  86;

COLDWATER*     PTSUNNY   79  64  60 S5        29.93F
6HR MIN TEMP:  79; 6HR MAX TEMP:  82;

HILLSDALE*     MOSUNNY   81  66  60 S3        29.96F
6HR MIN TEMP:  81; 6HR MAX TEMP:  84;

HOLLAND        CLOUDY    82  68  62 S9        29.86F
6HR MIN TEMP:  82; 6HR MAX TEMP:  87;

GRAND RAPIDS   CLOUDY    81  66  60 S10       29.88S HAZE
6HR MIN TEMP:  81; 6HR MAX TEMP:  85;

KALAMAZOO      PTSUNNY   81  66  60 S12       29.91F
6HR MIN TEMP:  80; 6HR MAX TEMP:  85;

STURGIS*       PTSUNNY   79  68  69 S8        29.92F
THREE RIVERS*  FAIR      80  66  63 S8        29.92S
6HR MIN TEMP:  80; 6HR MAX TEMP:  83;


$$
OHZ001>008-015>018-024>025-070100-
NORTHWEST OHIO

CITY           SKY/WX    TMP DP  RH WIND       PRES   REMARKS
DEFIANCE       MOSUNNY   82  65  56 S6        29.95S
6HR MIN TEMP:  82; 6HR MAX TEMP:  86;

FINDLAY        SUNNY     79  66  64 S5        29.97F
6HR MIN TEMP:  79; 6HR MAX TEMP:  85;

TOLEDO EXPRESS SUNNY     79  64  60 S5        29.95S
6HR MIN TEMP:  79; 6HR MAX TEMP:  84;

TOLEDO METCALF SUNNY     80  63  55 S7        29.96F
6HR MIN TEMP:  80; 6HR MAX TEMP:  85;

LIMA           SUNNY     80  64  58 S7        29.99S
6HR MIN TEMP:  80; 6HR MAX TEMP:  83;


$$
AND FOR LAKE MICHIGAN COASTAL AND OPEN LAKE BUOY OBSERVATIONS

STATION/POSITION TEMP    WIND        PRES    VSBY  WAVE
                 AIR SEA DIR/SP/G                  HT/PER
                 (F)     (DEG/KT/KT) (MB)    (MI)  (FT/S)
CALUMET HARBOR    80     160/  8/ 11   N/A
MICHIGAN CITY     74     150/  8/ 11   N/A
BURNS HARBOR      77     180/  6/ 14 1012.2F
SAINT JOSEPH      75     180/  7/ 13 1011.9F
4 MI NW BRIDGMAN  72 67  190/  8/ 10   N/A           1
MICHIGAN CITY     72 68  180/  4/  6   N/A           1

$$
&&



USA.gov is the U.S. government's official web portal to all federal, state and local government web resources and services.